Regional Weather Roundup
Issued by NWS

Home | Current Version | Previous Version | Text Only | Print | Product List | Glossary Off
Versions: 1 2 3 4 5 6 7 8 9 10 11 12 13 14 15 16 17 18 19 20 21 22 23 24 25 26 27 28 29 30 31 32 33 34 35 36 37 38 39 40 41 42 43 44 45 46 47 48 49 50

000
ASUS44 KMEG 301000
RWRTN
TENNESSEE HOURLY STATE WEATHER ROUNDUP
NATIONAL WEATHER SERVICE MEMPHIS TN
500 AM CDT TUE JUN 30 2015

TNZ002-004-019-021-049-052-054-088>092-301100-
WEST TENNESSEE

CITY           SKY/WX    TMP DP  RH WIND       PRES   REMARKS
MEMPHIS INTL   MOCLDY    71  65  81 CALM      29.91S
NWS MEMPHIS      N/A     69 N/A N/A MISG        N/A
JACKSON        MOCLDY    72  66  81 SW6       29.91R
DYERSBURG        N/A    N/A N/A N/A MISG        N/A
PARIS          CLEAR     66  66 100 CALM      29.91R
LEXINGTON      CLOUDY    70  68  94 CALM      29.91R
$$

TNZ008-025-027-028-033-062-065-066-301100-
NORTH MIDDLE TENNESSEE

CITY           SKY/WX    TMP DP  RH WIND       PRES   REMARKS
NASHVILLE      MOCLDY    69  69 100 S3        29.93R
CLARKSVILLE    CLEAR     65  65 100 CALM      29.90R FOG
COOKEVILLE     PTCLDY    66  66 100 SE32G226  29.94R SQUALL
CROSSVILLE     CLOUDY    65  62  90 S6        29.99S
$$

TNZ061-075-076-078-094-096-097-301100-
SOUTH MIDDLE TENNESSEE

CITY           SKY/WX    TMP DP  RH WIND       PRES   REMARKS
FAYETTEVILLE   PTCLDY    70  63  78 SW3       29.96R
TULLAHOMA      MOCLDY    72  64  78 W5        29.96R
WINCHESTER     CLOUDY    75  66  73 W6        29.96R
COLUMBIA       CLEAR     70  70 100 CALM      29.92R
SHELBYVILLE    CLEAR     72  70  94 CALM      29.95R
$$

TNZ017-018-042-046-047-301100-
NORTHEAST TENNESSEE

CITY           SKY/WX    TMP DP  RH WIND       PRES   REMARKS
TRI CITIES     CLOUDY    67  63  87 SE3       29.97R
ELIZABETHTON   MOSUNNY   64  63  94 SW5       29.99R
$$

TNZ012-013-036-069-073-074-301100-
CENTRAL EAST TENNESSEE

CITY           SKY/WX    TMP DP  RH WIND       PRES   REMARKS
KNOXVILLE      LGT RAIN  66  63  90 CALM      29.97R
OAK RIDGE      LGT RAIN  65  63  93 VRB3      29.98R
GATLINBURG     PTSUNNY   63  61  94 E6        29.98S
$$

TNZ083-085-099-301100-
SOUTHEAST TENNESSEE

CITY           SKY/WX    TMP DP  RH WIND       PRES   REMARKS
CHATTANOOGA    MOCLDY    73  64  73 CALM      29.95R
$$

SKY/WX REPORTED AS FAIR MEANS FEW OR NO CLOUDS BELOW
12 THOUSAND FEET.




USA.gov is the U.S. government's official web portal to all federal, state and local government web resources and services.